TimeMDT,TemperatureF,Dew PointF,Humidity,Sea Level PressureIn,VisibilityMPH,Wind Direction,Wind SpeedMPH,Gust SpeedMPH,PrecipitationIn,Events,Conditions,WindDirDegrees,DateUTC
12:53 AM,34.0,28.9,82,30.12,10.0,Calm,Calm,-,N/A,,Clear,0,2011-10-31 06:53:00
1:53 AM,33.1,28.0,82,30.11,10.0,Calm,Calm,-,N/A,,Clear,0,2011-10-31 07:53:00
2:53 AM,30.9,27.0,85,30.10,10.0,Calm,Calm,-,N/A,,Clear,0,2011-10-31 08:53:00
3:53 AM,30.9,28.0,89,30.08,10.0,Calm,Calm,-,N/A,,Clear,0,2011-10-31 09:53:00
4:53 AM,30.0,27.0,88,30.06,10.0,WSW,5.8,-,N/A,,Clear,240,2011-10-31 10:53:00
5:53 AM,30.0,27.0,88,30.07,10.0,WSW,5.8,-,N/A,,Clear,250,2011-10-31 11:53:00
6:53 AM,28.9,26.1,89,30.06,10.0,Calm,Calm,-,N/A,,Clear,0,2011-10-31 12:53:00
7:53 AM,30.9,28.0,89,30.07,10.0,WNW,4.6,-,N/A,,Clear,290,2011-10-31 13:53:00
8:53 AM,37.0,30.9,79,30.08,10.0,SW,3.5,-,N/A,,Clear,220,2011-10-31 14:53:00
9:53 AM,46.0,34.0,63,30.04,10.0,Calm,Calm,-,N/A,,Clear,0,2011-10-31 15:53:00
10:53 AM,54.0,37.0,53,30.03,10.0,West,4.6,-,N/A,,Clear,270,2011-10-31 16:53:00
11:53 AM,62.1,37.9,41,29.98,10.0,Calm,Calm,-,N/A,,Clear,0,2011-10-31 17:53:00
12:53 PM,66.9,37.9,34,29.94,10.0,Calm,Calm,-,N/A,,Clear,0,2011-10-31 18:53:00
1:53 PM,73.0,35.1,25,29.89,10.0,Variable,5.8,-,N/A,,Clear,0,2011-10-31 19:53:00
2:53 PM,73.9,32.0,21,29.86,10.0,NNW,3.5,-,N/A,,Clear,340,2011-10-31 20:53:00
3:53 PM,75.2,30.2,19,29.86,10.0,Calm,Calm,-,N/A,,Clear,0,2011-10-31 21:53:00
4:53 PM,70.0,36.0,29,29.85,10.0,East,4.6,-,N/A,,Clear,100,2011-10-31 22:53:00
5:53 PM,59.0,34.0,39,29.88,10.0,East,6.9,-,N/A,,Clear,80,2011-10-31 23:53:00
6:53 PM,54.0,34.0,47,29.91,10.0,ENE,6.9,-,N/A,,Clear,60,2011-11-01 00:53:00
7:53 PM,52.0,32.0,47,29.91,10.0,Calm,Calm,-,N/A,,Clear,0,2011-11-01 01:53:00
8:53 PM,48.0,34.0,58,29.91,10.0,NNW,6.9,-,N/A,,Clear,340,2011-11-01 02:53:00
9:53 PM,48.9,32.0,52,29.88,5.0,Calm,Calm,-,N/A,,Haze,0,2011-11-01 03:53:00
10:53 PM,46.0,33.1,61,29.88,10.0,NW,4.6,-,N/A,,Clear,310,2011-11-01 04:53:00
11:53 PM,45.0,32.0,60,29.86,10.0,WNW,3.5,-,N/A,,Clear,290,2011-11-01 05:53:00